Weather History for KGXA - August, 2013

Change the Weather History Date:

Saturday, August 10, 2013

  Actual Average (KPMD) Record (KPMD)
Temperature  
Mean Temperature 72 °F 82 °F  
Max Temperature 90 °F 98 °F 109 °F (2012)
Min Temperature 55 °F 66 °F 48 °F (1949)
Degree Days  
Heating Degree Days 0 0  
Month to date heating degree days 0  
Since 1 June heating degree days 7  
Since 1 July heating degree days 0  
Cooling Degree Days 8 17  
Month to date cooling degree days 176  
Year to date cooling degree days 1154  
Since 1 June cooling degree days 984  
Growing Degree Days 22 (Base 50)    
Moisture  
Dew Point 33 °F    
Average Humidity 25    
Maximum Humidity 43    
Minimum Humidity 10    
Precipitation  
Precipitation 0.00 in 0.00 in 1.05 in (1942)
Month to date precipitation 0.03  
Year to date precipitation 5.45  
Since 1 July precipitation 0.13  
Snow  
Snow 0.00 in - 0.00 in (1973)
Month to date snowfall  
Since 1 June snowfall  
Since 1 July snowfall  
Snow Depth -    
Sea Level Pressure  
Sea Level Pressure 29.90 in    
Wind  
Wind Speed 6 mph (SW)    
Max Wind Speed 16 mph    
Max Gust Speed 23 mph    
Visibility 10 miles    
Events      
T = Trace of Precipitation, MM = Missing Value Source: NWS Daily Summary

Daily Weather History Graph

Daily Weather History Graph

Search for Another Location

Airport or City:

Trip Planner

Search our weather history database for the weather conditions in past years. The results will help you decide how hot, cold, wet, or windy it might be!

Date:

Astronomy

Aug. 10, 2013 Rise Set
Actual Time 6:07 AM PDT 7:43 PM PDT
Civil Twilight 5:40 AM PDT 8:10 PM PDT
Nautical Twilight 5:08 AM PDT 8:42 PM PDT
Astronomical Twilight 4:34 AM PDT 9:16 PM PDT
Moon 9:46 AM PDT (8/10) 9:41 PM PDT (8/10)
Length of Visible Light 14h 29m
Length of Day
13h 35m
Waxing Crescent, 15% of the Moon is Illuminated
Aug 10
Waxing Crescent
Aug 14
First Quarter
Aug 20
Full
Aug 28
Last Quarter
Sep 5
New

Hourly Weather History & Observations

Time (PDT) Temp. Dew Point Humidity Pressure Visibility Wind Dir Wind Speed Gust Speed Precip Events Conditions
12:55 AM 59.4 °F 32.5 °F 36% 29.89 in 10.0 mi South 5.8 mph - N/A   Clear
1:55 AM 58.6 °F 27.3 °F 30% 29.88 in 10.0 mi South 4.6 mph - N/A   Clear
2:55 AM 56.5 °F 25.3 °F 30% 29.89 in 10.0 mi South 4.6 mph - N/A   Clear
3:55 AM 59.2 °F 23.5 °F 25% 29.87 in 10.0 mi South 3.5 mph - N/A   Clear
4:55 AM 55.2 °F 22.5 °F 28% 29.90 in 10.0 mi South 3.5 mph - N/A   Clear
5:55 AM 57.0 °F 22.5 °F 26% 29.91 in 10.0 mi South 4.6 mph - N/A   Clear
6:55 AM 59.4 °F 23.0 °F 25% 29.93 in 10.0 mi South 5.8 mph - N/A   Clear
7:55 AM 70.7 °F 32.0 °F 24% 29.92 in 10.0 mi WSW 3.5 mph - N/A   Clear
8:55 AM 73.8 °F 36.5 °F 26% 29.93 in 10.0 mi Variable 5.8 mph - N/A   Clear
9:55 AM 77.9 °F 36.1 °F 22% 29.94 in 10.0 mi Variable 3.5 mph - N/A   Clear
10:55 AM 80.2 °F 33.8 °F 19% 29.95 in 10.0 mi Variable 2.3 mph - N/A   Clear
11:55 AM 82.9 °F 30.2 °F 15% 29.93 in 10.0 mi Variable 6.9 mph - N/A   Clear
12:55 PM 84.7 °F 27.3 °F 12% 29.92 in 10.0 mi Variable 4.6 mph - N/A   Clear
1:55 PM 88.3 °F 27.9 °F 11% 29.89 in 10.0 mi Variable 5.8 mph - N/A   Clear
2:55 PM 90.0 °F 25.2 °F 10% 29.88 in 10.0 mi SW 3.5 mph - N/A   Clear
3:55 PM 88.5 °F 31.1 °F 13% 29.86 in 10.0 mi WNW 10.4 mph 21.9 mph N/A   Clear
4:55 PM 87.1 °F 34.7 °F 15% 29.87 in 10.0 mi WNW 16.1 mph 23.0 mph N/A   Clear
5:55 PM 85.1 °F 37.8 °F 19% 29.88 in 10.0 mi WNW 16.1 mph 20.7 mph N/A   Clear
6:55 PM 81.9 °F 40.6 °F 23% 29.88 in 10.0 mi West 16.1 mph 20.7 mph N/A   Clear
7:55 PM 77.2 °F 42.6 °F 29% 29.86 in 10.0 mi West 11.5 mph - N/A   Clear
8:55 PM 73.0 °F 43.2 °F 34% 29.89 in 10.0 mi West 9.2 mph - N/A   Clear
9:55 PM 69.4 °F 46.0 °F 43% 29.91 in 10.0 mi WSW 4.6 mph - N/A   Clear
10:55 PM 67.8 °F 43.2 °F 41% 29.91 in 10.0 mi SSW 5.8 mph - N/A   Clear
11:55 PM 64.0 °F 41.4 °F 43% 29.91 in 10.0 mi SSE 4.6 mph - N/A   Clear